Weather History for Hailey, ID

Change the Weather History Date:

Thursday, July 18, 2013

  Actual Average Record
Temperature  
Mean Temperature 73 °F -  
Max Temperature 91 °F 85 °F 100 °F (2003)
Min Temperature 55 °F 53 °F 37 °F (1999)
Cooling Degree Days 8    
Growing Degree Days 23 (Base 50)    
Moisture  
Dew Point 38 °F    
Average Humidity 34    
Maximum Humidity 48    
Minimum Humidity 11    
Precipitation  
Precipitation 0.00 in - - ()
Sea Level Pressure  
Sea Level Pressure 30.22 in    
Wind  
Wind Speed 11 mph (NW)    
Max Wind Speed 17 mph    
Max Gust Speed 22 mph    
Visibility 10 miles    
Events      
Averages and records for this station are not official NWS values.
T = Trace of Precipitation, MM = Missing Value Source: NWS Daily Summary

Daily Weather History Graph

Daily Weather History Graph

Search for Another Location

Airport:

Trip Planner

Search our weather history database for the weather conditions in past years. The results will help you decide how hot, cold, wet, or windy it might be!

Date:

Astronomy

Jul. 18, 2013 Rise Set
Actual Time 6:12 AM MDT 9:13 PM MDT
Civil Twilight 5:38 AM MDT 9:47 PM MDT
Nautical Twilight 4:55 AM MDT 10:30 PM MDT
Astronomical Twilight 4:03 AM MDT 11:22 PM MDT
Moon 5:14 PM MDT (7/18) 2:08 AM MDT (7/18)
Length of Visible Light 16h 08m
Length of Day
15h 00m
Waxing Gibbous, 78% of the Moon is Illuminated
Jul 18
Waxing Gibbous
Jul 22
Full
Jul 29
Last Quarter
Aug 6
New
Aug 14
First Quarter

Hourly Weather History & Observations

Time (MDT) Temp. Dew Point Humidity Pressure Visibility Wind Dir Wind Speed Gust Speed Precip Events Conditions
12:15 AM 68.0 °F 46.4 °F 46% 30.21 in 10.0 mi NNW 10.4 mph - N/A   Clear
12:35 AM 69.8 °F 42.8 °F 38% 30.21 in 10.0 mi NW 10.4 mph - N/A   Clear
12:55 AM 68.0 °F 42.8 °F 40% 30.22 in 10.0 mi NW 11.5 mph - N/A   Clear
1:15 AM 68.0 °F 42.8 °F 40% 30.22 in 10.0 mi NNW 13.8 mph - N/A   Clear
1:35 AM 64.4 °F 41.0 °F 42% 30.22 in 10.0 mi NW 15.0 mph - N/A   Clear
1:55 AM 64.4 °F 41.0 °F 42% 30.23 in 10.0 mi NNW 13.8 mph - N/A   Clear
2:15 AM 64.4 °F 41.0 °F 42% 30.23 in 10.0 mi NW 13.8 mph - N/A   Clear
2:35 AM 62.6 °F 41.0 °F 45% 30.23 in 10.0 mi NW 15.0 mph - N/A   Clear
2:55 AM 62.6 °F 39.2 °F 42% 30.24 in 10.0 mi NW 10.4 mph - N/A   Clear
3:15 AM 62.6 °F 39.2 °F 42% 30.24 in 10.0 mi WNW 10.4 mph 17.3 mph N/A   Clear
3:35 AM 60.8 °F 39.2 °F 45% 30.24 in 10.0 mi NW 10.4 mph - N/A   Clear
3:55 AM 60.8 °F 39.2 °F 45% 30.23 in 10.0 mi NW 9.2 mph - N/A   Clear
4:15 AM 59.0 °F 39.2 °F 48% 30.24 in 10.0 mi NNW 11.5 mph - N/A   Clear
4:35 AM 59.0 °F 37.4 °F 45% 30.24 in 10.0 mi NNW 11.5 mph - N/A   Clear
4:55 AM 59.0 °F 37.4 °F 45% 30.25 in 10.0 mi NW 10.4 mph 18.4 mph N/A   Clear
5:15 AM 59.0 °F 35.6 °F 42% 30.25 in 10.0 mi NW 10.4 mph - N/A   Clear
5:35 AM 57.2 °F 35.6 °F 44% 30.25 in 10.0 mi NW 13.8 mph - N/A   Clear
5:55 AM 57.2 °F 35.6 °F 44% 30.25 in 10.0 mi NW 13.8 mph - N/A   Clear
6:15 AM 55.4 °F 35.6 °F 47% 30.25 in 10.0 mi NW 12.7 mph - N/A   Clear
6:35 AM 55.4 °F 33.8 °F 44% 30.25 in 10.0 mi NNW 17.3 mph 21.9 mph N/A   Clear
6:47 AM 57.2 °F 35.6 °F 44% 30.26 in 10.0 mi WNW 11.5 mph 21.9 mph N/A   Clear
6:55 AM 55.4 °F 33.8 °F 44% 30.26 in 10.0 mi NW 12.7 mph - N/A   Clear
7:47 AM 59.0 °F 35.6 °F 42% 30.28 in 10.0 mi NW 10.4 mph 20.7 mph N/A   Clear
8:47 AM 62.6 °F 35.6 °F 37% 30.28 in 10.0 mi NW 11.5 mph - N/A   Clear
9:50 AM 71.6 °F 37.4 °F 29% 30.28 in 10.0 mi NNW 6.9 mph - N/A   Clear
10:47 AM 77.0 °F 37.4 °F 24% 30.27 in 10.0 mi Calm Calm - N/A   Clear
11:47 AM 80.6 °F 44.6 °F 28% 30.25 in 10.0 mi SE 5.8 mph - N/A   Clear
12:47 PM 84.2 °F 46.4 °F 27% 30.25 in 10.0 mi SE 9.2 mph - N/A   Clear
1:50 PM 87.8 °F 35.6 °F 16% 30.23 in 10.0 mi SE 4.6 mph - N/A   Clear
2:47 PM 89.6 °F 33.8 °F 14% 30.21 in 10.0 mi SSE 4.6 mph - N/A   Clear
3:47 PM 91.4 °F 30.2 °F 11% 30.19 in 10.0 mi SE 5.8 mph - N/A   Clear
4:47 PM 89.6 °F 30.2 °F 12% 30.17 in 10.0 mi South 11.5 mph - N/A   Clear
5:47 PM 89.6 °F 33.8 °F 14% 30.16 in 10.0 mi WSW 5.8 mph - N/A   Clear
6:47 PM 87.8 °F 33.8 °F 15% 30.14 in 10.0 mi SSW 4.6 mph - N/A   Clear
7:47 PM 84.2 °F 33.8 °F 16% 30.14 in 10.0 mi South 5.8 mph - N/A   Clear
8:47 PM 84.2 °F 32.0 °F 15% 30.14 in 10.0 mi SW 5.8 mph - N/A   Clear
9:47 PM 75.2 °F 35.6 °F 24% 30.16 in 10.0 mi NW 8.1 mph - N/A   Clear
10:47 PM 71.6 °F 39.2 °F 31% 30.19 in 10.0 mi NW 8.1 mph - N/A   Clear
11:15 PM 69.8 °F 35.6 °F 28% 30.19 in 10.0 mi NNW 12.7 mph - N/A   Clear
11:35 PM 69.8 °F 37.4 °F 31% 30.19 in 10.0 mi NW 10.4 mph - N/A   Clear
11:55 PM 68.0 °F 35.6 °F 30% 30.19 in 10.0 mi NNW 11.5 mph - N/A   Clear